Regional Weather Roundup
Issued by NWS

Home | Current Version | Previous Version | Graphics & Text | Print | Product List | Glossary On
Versions: 1 2 3 4 5 6 7 8 9 10 11 12 13 14 15 16 17 18 19 20 21 22 23 24 25 26 27 28 29 30 31 32 33 34 35 36 37 38 39 40 41 42 43 44 45 46 47 48 49 50
000
ASUS45 KBOU 221407
RWRCO

WEATHER ROUNDUP FOR COLORADO
NATIONAL WEATHER SERVICE DENVER/BOULDER CO
800 AM MDT FRI MAY 22 2015

NOTE: "FAIR" INDICATES FEW OR NO CLOUDS BELOW 12000 FEET WITH NO
SIGNIFICANT WEATHER AND/OR OBSTRUCTIONS TO VISIBILITY.

COZ001>005-013-030-031-221500-
...NORTHWEST COLORADO...

CITY           SKY/WX    TMP DP  RH WIND       PRES   REMARKS
CRAIG          LGT RAIN  45  42  89 W14       30.03R
HAYDEN         CLOUDY    45  37  76 SE3       30.03R
MEEKER         RAIN      43  39  86 NE5       30.06R FOG
MOUNT WERNER   NOT AVBL
STEAMBOAT SPGS CLOUDY    42  40  91 CALM      30.03R
WALDEN         CLOUDY    37  36  93 CALM      30.04S
$$

COZ006>008-011-221500-
...WEST CENTRAL VALLEYS...

CITY           SKY/WX    TMP DP  RH WIND       PRES   REMARKS
GRAND JUNCTION CLOUDY    51  46  83 E9        29.99R
MONTROSE       PTSUNNY   50  42  74 SE3       30.04S
EAGLE          CLOUDY    43  41  93 E9        30.09F
RIFLE          CLOUDY    48  42  80 E6        30.03S
DELTA          PTSUNNY   51  47  85 NE5       30.02S
NUCLA          PTSUNNY   50  41  71 CALM      30.06S
$$

COZ017>023-064>068-221500-
...SOUTHWEST COLORADO...

CITY           SKY/WX    TMP DP  RH WIND       PRES   REMARKS
DURANGO        MOSUNNY   45  40  82 NE5       30.11S
CORTEZ         SUNNY     53  39  59 SE15      30.04S
PAGOSA SPRINGS CLOUDY    39  38  97 CALM      30.17R
TELLURIDE      SUNNY     40  30  68 CALM      30.15S
WOLF CREEK PAS NOT AVBL
$$

COZ009-010-012-014-032>034-037-058>063-221500-
...CENTRAL COLORADO...

CITY           SKY/WX    TMP DP  RH WIND       PRES   REMARKS
ASPEN          CLOUDY    41  37  86 CALM      30.07F
BUENA VISTA    CLOUDY    39  36  88 CALM      30.07S
COPPER MTN     CLOUDY    34  27  75 SW14G21   30.18S WCI  24
BERTHOUD PASS  HAZE      27  18  69 NW16G24   30.17F VSB<1/4 WCI  14
COTTONWOOD PAS CLOUDY    39  32  75 CALM      30.11R
GUNNISON       MOSUNNY   45  34  65 NE3       30.11S
KREMMLING      CLOUDY    41  34  75 S10G17    30.06S
LEADVILLE      CLOUDY    33  32  96 NE8       30.11R WCI  26
SALIDA         CLOUDY    42  41  93 CALM      30.13S
SUNLIGHT       CLOUDY    34  32  93 CALM      30.18S
WILKERSON PASS FOG       30  30 100 W7G20     30.15R VSB<1/4 WCI  23
$$

COZ069>075-221500-
...SAN LUIS VALLEY/SANGRE DE CRISTO MOUNTAINS...

CITY           SKY/WX    TMP DP  RH WIND       PRES   REMARKS
ALAMOSA        SUNNY     45  36  70 SW16      30.10R
LA VETA PASS   FOG      N/A N/A N/A MISG      30.12R VSB<1/4
SAGUACHE       PTSUNNY   41  37  87 S8        30.12R
$$

COZ035-036-038>040-221500-
...NORTHERN COLORADO FRONT RANGE...

CITY           SKY/WX    TMP DP  RH WIND       PRES   REMARKS
DENVER INTL AP LGT RAIN  47  44  90 SE12      30.00R
DMNS CITY PARK   N/A     48  46  94 NE2       29.99S
AURORA         LGT RAIN  47  45  94 S7        30.00S
FRONT RANGE AP LGT RAIN  48  46  93 SE10      30.01S
ERIE MUNI ARPT RAIN      47  46  95 E3        30.00S
BOULDER MUN AP LGT RAIN  46  46 100 NE3       30.00S
CENTENNIAL     LGT RAIN  47  44  90 SW7       30.00R
BROOMFIELD     LGT RAIN  46  46 100 CALM      30.00
FORT COLLINS   CLOUDY    46  45  93 E12       30.03S
LONGMONT       RAIN      49  47  94 E6        30.02S
$$

COZ041-046-047-076>085-087-088-221500-
...PIKES PEAK/PALMER DIVIDE AND SOUTHERN FOOTHILLS...

CITY           SKY/WX    TMP DP  RH WIND       PRES   REMARKS
COLO. SPRINGS  CLOUDY    44  43  96 E6        30.01F
A. F. ACADEMY  CLOUDY    43  43 100 VRB2      30.00F
ELLICOTT       NOT AVBL
FALCON         LGT RAIN  41  41 100 SE3       30.04S
FORT CARSON    CLOUDY    45 N/A N/A E3        30.01R
LIMON          LGT RAIN  44  43  96 SE12      30.02F
MONUMENT HILL  NOT AVBL
TRINIDAD       SUNNY     51  42  71 SW6       30.01R
$$

COZ042>045-048>051-090-091-221500-
...NORTHEAST COLORADO...

CITY           SKY/WX    TMP DP  RH WIND       PRES   REMARKS
GREELEY ARPT   CLOUDY    46  45  93 SE15      30.02S
AKRON          LGT RAIN  45  45 100 SE14      30.06S
BURLINGTON     CLOUDY    47  45  93 SE22      30.04F FOG
WRAY           RAIN     N/A N/A N/A E10       30.10S
STERLING       LGT RAIN  46  45  93 SE9       30.07R
HOLYOKE        NOT AVBL
FORT MORGAN    RAIN      46  44  94 E15       30.05S
$$

COZ086-089-092>099-221500-
...SOUTHEAST COLORADO...

CITY           SKY/WX    TMP DP  RH WIND       PRES   REMARKS
PUEBLO         CLOUDY    47  45  93 SE5       29.99S
LA JUNTA       CLOUDY    52  45  77 S8        29.98S
LAMAR          CLOUDY    52  47  83 S17G25    30.00S
SPRINGFIELD      N/A     48  46  93 S23G30    30.05S
$$


USA.gov is the U.S. government's official web portal to all federal, state and local government web resources and services.